SL-8 DEB, 1590

Orbit data source: Space-Track

SL-8 DEB, 1590 is space debris in LEO originally from a launch on Sat, 18 Sep 1965 UTC launched from the Tyuratam Missile And Space Complex (TTMTR). Debris objects in space refer to the collection of defunct objects orbiting the Earth. Examples of debris include non-operational satellites, rocket bodies, and fragments generated from explosions, collisions, or faulty payload assembly.

Loading next visibility...
Identifier
1590, 1965-073G
Orbit
LEO
Country
Flag of CISCIS
Related business
Manufacturer
Unknown
Mission
Spacecraft
Bus & Motor
Unknown
Mass
Unknown
Launch date (UTC)
1965-09-18 (60 years ago)
Launch vehicle
Unknown
Launch site
Tyuratam Missile And Space Complex (TTMTR)
Object type
Payload
Rocket body
Debris
Shape & HBR
Unknown shape, 0.1 m
Radar Cross Section
Small (<0.1 m²)

Expand to show TLE details & history
Last TLE update: 5 days ago

TLE from 5 days ago
0 SL-8 DEB
1 01590U 65073G   25307.84347286  .00000554  00000-0  40446-2 0  9999
2 01590  56.0841 343.3070 0178012  94.8954  81.4190 12.49731930730168
Epoch: 2025-11-03T20:14Z
TLE epoch observation values (Epoch: 2025-11-03T20:14:36.055Z)
Latitude
1.31118°
Longitude
175.44029°
Altitude
1,448.118 km
Speed
7.147 km/s
True Right ascension
10h 49m 43s
True Declination
1° 18' 14"
Sunlit
Object was in daylight at epoch
Visualization orbit readout
Latitude
Unknown
Longitude
Unknown
Altitude
Unknown
Speed
Unknown
Apparent Right ascension
Unknown
Apparent Declination
Unknown
Sunlit
N/A
Visualization observer readout
Local Sidereal Time
22:01:49
Azimuth
Unknown
Elevation
Unknown
Doppler factor
Unknown
Orbital elements
Apogee altitude
1,605.061 km
Perigee altitude
1,325.811 km
Semi-major axis
7,843.573 km
Eccentricity
0.0178
Inclination
56.0841°
RAAN
343.307°
Arg. of periapsis
94.8954°
True anomaly
83.44233°
Mean anomaly
81.419°
Eccentric anomaly
82.43004°
Mean motion
3.12444 °/min
Orbital period
115.22 mins
BSTAR
0.0040446
Loading maneuver chart data...
Computing Atmospheric mass density...
Loading historical data...
Loading historical data...
Loading historical data...
Loading historical data...
Loading historical data...
Loading historical data...
Loading historical data...

Documentation

Showing up to 5 results
|